カタログに戻る

STARLINK-2507

運用中通信VLEO
NORAD 48316·PAYLOAD·🇺🇸 United States

打ち上げ Apr 29, 2021 から Cape Canaveral Space Force Station

Loading…

次のパス (今後24時間)

TLE

最新Source: CelesTrak SupGP

元期: Sep 14, 2026, 20:49 UTC

1 48316C 21036AS  26257.86784722 -.00001598  00000+0 -51361-4 0  2571
2 48316  53.1566 298.5288 0001193  94.6522 231.7794 15.31720405    16

AllMySatでSTARLINK-2507をリアルタイム追跡

Download on the App Store